Theta_e
294 295 296 296 296 296 297 297 301 300 301 303 303 305 303 303 304 305 306 308 309 311 310 311 311 311 314 312 313 314 315 318 318 315 315 314 314 312 311 314 316 320 320 320
295 295 294 296 296 295 297 298 299 300 303 304 303 303 303 303 304 305 306 308 306 307 307 308 309 310 311 310 311 310 310 315 317 316 315 315 316 316 315 315 316 318 321 322
293 294 294 294 294 294 295 298 301 299 302 302 304 304 303 303 303 305 306 308 308 306 306 307 308 309 310 310 310 307 308 310 312 315 317 315 316 318 316 317 319 319 319 318
295 294 294 295 295 295 295 297 301 301 303 304 303 303 303 305 304 304 305 308 308 307 306 306 307 308 309 310 310 310 310 310 310 310 310 310 311 312 316 318 317 318 318 318
296 296 295 295 295 295 296 297 298 299 300 302 303 303 303 303 304 305 307 306 307 307 308 308 308 310 311 311 311 311 312 314 312 312 312 312 312 312 312 315 316 316 316 317
298 298 298 297 296 296 297 297 297 298 300 302 302 304 304 303 303 303 304 306 307 307 308 307 308 308 309 310 310 310 311 312 313 313 312 312 314 314 313 312 314 315 318 320
298 299 299 298 298 297 297 297 297 298 301 302 302 302 303 304 304 305 305 305 307 307 308 308 307 307 308 308 309 309 310 311 312 313 313 313 312 312 317 316 317 317 317 317
297 298 298 299 298 299 297 297 297 299 301 300 302 303 304 304 304 305 305 305 307 307 308 308 308 308 309 309 309 309 310 310 312 313 313 312 312 312 314 316 316 317 319 319
296 297 298 298 296 297 298 297 298 299 301 301 300 302 302 304 306 306 305 306 306 307 307 307 308 309 310 311 311 310 310 310 312 313 312 312 315 317 316 316 318 317 315 316
295 296 296 297 297 296 297 298 298 298 299 301 301 303 304 303 304 306 306 307 307 307 308 308 308 309 309 312 312 312 312 312 312 313 312 312 313 314 314 319 318 315 316 315
296 295 296 297 297 297 297 298 298 298 298 300 301 302 303 304 305 307 307 307 305 305 308 307 308 310 311 310 310 314 312 313 313 313 312 312 315 315 317 315 314 314 314 313
300 297 295 296 297 297 297 298 298 298 298 300 301 302 304 304 305 304 305 307 306 306 307 308 309 310 313 310 310 311 314 312 314 311 312 314 311 313 311 311 311 310 310 311
300 300 298 296 297 297 297 297 299 298 298 298 299 301 302 305 306 305 305 305 307 307 307 309 310 311 310 311 311 312 312 312 314 311 312 314 312 311 309 309 309 307 308 309
300 300 300 298 298 298 298 298 299 298 298 300 301 303 302 303 304 306 306 306 306 306 307 308 309 311 309 310 310 311 312 312 313 313 312 312 310 309 307 307 307 307 306 307
301 301 300 300 300 298 299 298 299 299 300 302 301 303 304 304 304 304 305 306 306 307 307 308 309 308 309 310 311 311 308 309 312 313 307 309 308 304 304 305 305 305 305 304
300 301 301 300 300 299 299 299 299 299 299 302 304 303 304 305 305 305 305 306 306 305 306 308 307 307 309 310 310 304 303 304 303 304 303 305 304 303 301 301 302 304 303 301
301 300 301 300 300 300 298 300 300 299 300 301 304 304 304 305 305 305 306 306 305 304 304 307 307 308 308 309 310 301 298 300 300 300 302 303 301 301 300 299 299 302 300 298
301 300 301 301 300 301 299 301 300 299 300 301 304 305 305 305 305 306 305 306 305 305 305 306 308 307 307 305 299 296 295 297 298 297 298 300 300 300 298 297 297 298 296 294
301 301 301 301 299 299 299 300 299 300 301 302 304 305 307 305 305 306 305 305 304 304 305 307 307 308 301 296 294 293 292 293 293 294 298 297 298 297 296 294 293 293 292 290
301 300 299 299 300 300 299 300 300 299 300 302 305 304 306 305 303 304 305 304 305 307 306 307 307 297 294 293 292 291 290 290 290 291 292 292 292 292 293 291 289 288 287 286
300 299 300 299 299 300 300 299 302 302 302 303 303 304 305 302 305 305 306 306 306 307 307 308 305 298 294 292 291 290 289 288 288 288 288 288 288 289 290 288 286 284 284 283
300 299 299 300 300 302 303 303 303 303 304 304 304 304 304 303 303 306 305 306 307 307 304 307 301 294 291 290 289 288 286 286 286 285 285 284 284 285 285 284 282 281 281 281
300 299 297 300 298 303 303 302 303 303 301 300 300 302 303 302 300 302 306 306 307 303 306 299 294 290 288 287 287 286 284 284 283 282 282 281 280 281 280 280 279 279 279 279
297 297 296 298 298 296 296 296 297 294 296 297 298 300 303 300 303 302 304 302 304 305 304 295 290 288 287 286 285 284 283 282 281 280 280 279 278 278 279 278 279 279 279 279
293 295 296 294 293 292 293 293 294 292 292 295 298 300 300 301 300 301 301 301 300 297 295 291 287 286 285 284 283 283 282 281 280 279 279 278 278 278 277 277 277 277 277 277
290 289 295 293 296 293 290 290 291 291 292 294 297 301 300 299 300 299 297 301 296 292 290 287 285 284 283 282 282 281 281 280 279 279 278 277 277 277 276 277 277 277 277 277
291 290 288 292 291 290 289 289 289 291 294 298 299 298 297 298 296 292 291 292 290 287 286 284 283 283 282 281 281 281 280 279 279 279 278 278 277 277 276 276 276 276 276 276
Wind_Speed
22 22 18 16 13 12 12 9 4 5 19 11 7 12 18 20 24 22 8 19 5 8 8 12 4 2 8 8 6 4 9 4 7 15 9 13 17 18 17 8 12 8 11 7
22 19 17 17 16 16 11 8 17 14 15 7 12 14 17 21 18 16 10 11 16 12 9 6 5 7 11 7 8 8 11 3 5 11 9 8 7 9 16 17 13 16 10 10
22 21 20 19 19 19 18 7 3 17 14 17 14 14 17 18 20 10 20 16 19 17 12 10 7 5 5 6 4 8 4 7 9 8 5 8 11 18 14 13 9 11 14 16
27 25 23 21 21 20 20 12 6 9 6 13 15 16 13 10 16 25 7 7 17 15 11 11 13 12 9 5 2 4 5 10 13 18 17 13 17 16 16 13 11 11 12 17
30 31 29 27 25 23 27 8 6 12 18 18 13 18 18 19 16 9 9 18 18 15 14 14 9 9 7 5 4 6 1 5 10 14 16 16 17 17 18 17 16 16 18 18
25 27 31 31 30 31 24 29 18 13 10 14 14 12 12 16 15 16 13 19 15 10 11 14 10 3 10 11 10 7 4 4 5 11 13 14 13 14 17 19 17 15 12 14
20 19 25 30 34 40 38 29 19 12 10 11 15 19 18 17 18 15 12 23 18 15 1 7 11 14 16 16 14 13 8 8 5 5 9 7 9 15 6 7 7 11 16 14
21 20 21 20 22 25 45 31 30 21 9 16 19 19 14 17 21 15 16 14 3 8 2 1 6 7 9 18 19 18 15 11 3 3 6 14 18 14 11 8 2 15 13 16
25 25 24 24 24 22 30 45 31 13 9 18 27 19 21 11 11 12 15 11 9 4 3 1 4 5 8 5 6 21 18 13 9 5 5 5 2 11 14 2 6 12 15 16
26 26 26 28 27 25 25 21 36 32 11 15 22 17 16 21 16 8 13 7 6 5 5 4 6 11 11 6 5 11 14 12 13 9 8 7 6 8 29 4 4 12 12 14
27 29 27 27 29 29 29 26 26 33 7 19 21 27 23 22 4 8 5 6 2 2 4 4 7 5 4 8 3 9 9 9 7 8 8 11 20 3 2 5 8 15 16 18
25 29 31 29 29 27 29 24 23 22 18 10 11 25 24 15 11 14 9 5 7 9 5 7 3 4 4 6 5 8 7 8 5 4 4 7 19 11 14 11 12 16 21 23
26 28 30 33 31 31 32 32 21 23 13 19 21 26 25 16 12 13 8 10 7 4 11 4 3 6 3 3 5 3 6 12 3 4 6 5 9 12 14 16 17 18 20 21
25 27 28 34 33 35 39 36 30 25 5 4 11 11 25 22 21 17 16 15 5 8 6 4 4 3 8 2 5 3 3 4 4 0 10 10 13 12 16 17 20 19 20 21
27 28 30 30 33 33 29 37 34 28 15 3 13 12 12 18 20 23 20 16 9 3 2 4 3 5 3 3 3 4 9 7 4 3 12 8 10 14 16 17 18 16 15 16
32 29 30 31 31 33 30 10 34 30 23 6 3 12 9 14 14 20 20 19 15 7 4 3 4 10 2 2 1 4 10 11 12 6 11 8 10 13 17 16 15 13 11 13
30 32 29 32 30 34 35 9 9 35 21 5 3 3 8 15 12 16 14 14 7 7 4 3 4 4 3 1 2 6 9 8 9 11 13 7 15 9 13 13 13 9 10 11
27 31 30 32 31 31 27 9 4 34 17 4 3 2 4 17 8 7 9 7 8 8 4 4 4 1 4 3 8 10 11 9 8 14 11 5 7 7 9 11 13 10 11 10
30 31 30 37 29 14 17 10 32 26 6 3 4 2 2 12 4 5 8 5 2 5 3 3 3 1 4 4 7 8 10 10 13 14 8 10 11 12 12 13 14 12 11 11
36 36 12 7 13 32 35 19 6 7 5 5 3 4 2 3 2 2 3 4 2 2 4 2 2 3 8 6 6 7 8 9 11 13 15 17 15 15 14 10 10 9 9 9
12 6 9 44 36 16 5 5 4 7 3 6 5 6 4 3 1 3 5 3 3 3 4 4 4 3 5 6 9 9 9 10 10 8 8 9 10 11 10 9 9 9 7 7
15 27 23 16 5 4 3 3 3 5 3 2 1 3 4 4 4 1 3 3 1 3 3 3 4 4 9 9 10 10 12 10 10 9 9 8 8 6 5 5 6 6 6 7
14 7 5 1 4 2 3 7 4 4 2 3 2 2 3 3 0 1 2 3 2 5 2 3 4 9 9 9 8 9 10 9 8 9 9 8 8 7 8 9 10 11 13 15
6 4 5 5 4 5 4 4 4 4 2 3 3 3 0 3 1 2 3 2 3 3 4 4 5 9 8 8 8 8 9 9 10 10 10 11 12 13 12 11 9 9 13 14
7 6 4 4 4 5 5 4 2 5 3 2 0 2 4 3 2 2 3 2 3 5 4 4 10 9 9 8 8 8 8 9 10 9 10 11 12 14 16 16 17 18 20 21
6 8 1 7 4 8 11 10 8 8 6 3 4 2 3 2 1 2 5 2 5 4 5 12 9 9 8 8 8 8 9 11 11 12 12 13 14 15 16 16 17 18 18 18
4 4 9 8 8 8 8 9 11 12 8 3 2 3 3 1 4 3 5 4 6 12 11 10 9 8 8 8 10 10 10 11 12 14 15 16 15 16 17 19 18 17 16 16
Wind_Direction
269 270 261 248 237 229 218 236 240 266 183 198 214 228 229 248 263 289 269 276 245 288 332 272 302 46 95 51 7 298 32 320 272 260 233 212 211 212 227 229 245 243 251 261
269 270 259 245 242 230 230 233 244 257 202 220 228 240 244 244 259 277 261 271 271 260 294 297 294 307 77 68 1 39 360 298 289 263 251 267 279 242 208 220 250 264 275 270
266 261 254 243 237 230 212 240 243 235 224 243 262 252 248 244 223 255 262 287 306 271 267 280 294 305 59 82 65 73 352 275 283 280 316 302 300 307 251 250 231 236 250 271
265 258 253 242 227 220 206 220 237 239 209 232 239 247 255 269 262 224 231 298 265 274 265 255 252 264 249 240 34 279 231 262 276 282 286 279 277 277 287 277 261 260 275 275
258 253 247 239 230 215 211 215 218 247 254 247 234 235 247 252 240 208 275 247 250 239 233 253 280 330 313 295 279 271 13 273 280 276 279 280 278 275 271 265 267 270 269 268
261 247 242 238 230 214 218 222 231 258 270 262 264 236 251 246 251 258 216 266 250 240 261 297 329 301 277 250 282 291 297 288 294 269 275 286 283 271 251 253 261 267 283 308
260 255 240 234 232 222 213 218 213 223 245 248 257 259 250 247 262 252 240 205 242 256 37 297 292 278 259 255 249 241 236 253 266 290 313 259 246 260 345 280 283 301 281 300
255 249 244 226 221 223 216 208 203 216 238 236 252 247 254 278 266 251 263 263 137 215 171 280 277 249 252 244 236 225 218 230 250 242 252 280 290 290 261 245 217 18 349 341
253 245 238 230 227 229 215 214 199 201 223 230 239 256 261 253 267 272 262 61 203 174 59 28 250 261 225 205 216 203 202 211 222 234 246 257 43 358 342 106 215 9 12 338
245 239 236 230 226 224 224 224 216 219 235 239 229 240 252 256 239 250 249 126 169 174 179 217 264 260 271 254 187 180 193 188 216 230 247 279 351 22 302 230 352 337 351 348
240 234 231 227 225 222 217 220 227 209 230 254 240 249 256 264 234 243 141 124 123 100 182 223 244 252 238 268 246 143 188 187 197 231 249 253 8 69 27 356 6 358 356 354
249 231 226 222 221 216 211 215 222 229 233 256 236 249 257 267 268 233 171 348 146 167 201 226 261 267 307 320 268 172 177 213 177 208 249 65 37 355 59 36 19 360 357 346
249 236 222 221 217 213 209 210 204 195 223 267 260 250 244 246 236 212 165 248 217 208 241 318 266 262 290 252 271 112 281 189 146 131 240 128 88 30 31 31 23 8 5 358
243 233 221 217 214 210 208 208 205 204 183 237 267 247 233 235 233 226 222 236 237 229 255 247 246 267 296 225 233 235 344 303 214 262 66 99 40 49 24 24 19 13 8 4
238 229 218 215 209 210 207 204 208 207 198 256 246 247 242 221 231 220 224 226 209 183 221 231 244 239 306 290 294 49 354 5 14 70 33 29 67 47 24 21 12 11 9 9
225 219 212 206 203 198 188 179 211 210 210 270 271 239 205 197 206 205 215 216 211 198 234 242 260 254 281 293 73 50 38 29 37 27 349 47 23 41 20 15 5 6 26 29
206 203 200 196 190 188 177 173 200 198 193 231 267 257 195 192 194 202 209 204 190 180 231 250 264 295 295 194 99 66 25 14 43 18 9 38 22 5 1 3 357 17 42 45
183 184 183 182 177 187 180 182 197 173 180 207 255 268 165 180 181 169 172 171 174 178 199 277 249 192 172 85 71 48 17 354 20 2 4 24 360 11 14 10 13 31 34 33
151 161 164 150 155 146 154 164 152 160 176 206 216 246 169 171 146 133 152 135 179 147 202 228 183 86 61 62 36 27 18 10 343 344 356 7 6 6 6 14 21 30 30 35
142 136 121 103 133 135 132 132 133 158 229 250 241 229 93 155 112 86 107 147 154 187 213 209 86 81 92 71 57 40 21 7 358 358 356 354 354 354 359 22 21 31 40 46
85 75 82 124 125 123 104 133 181 174 204 205 227 202 132 184 172 133 168 164 187 211 171 201 144 97 105 76 62 52 39 22 20 14 -0 357 354 356 4 22 17 25 27 39
128 116 106 105 109 137 140 149 160 203 178 93 21 114 102 121 175 133 171 148 106 266 135 214 102 80 59 49 35 35 29 23 25 24 24 20 24 28 35 32 34 40 48 64
104 81 81 45 9 125 185 162 176 133 42 66 82 104 112 115 60 241 172 157 183 147 152 67 63 76 50 35 21 32 29 29 33 38 35 34 37 50 59 66 69 77 82 87
65 51 55 13 62 52 32 14 33 53 24 68 48 118 136 104 126 303 93 52 202 177 142 75 89 72 59 46 36 34 32 35 40 41 44 55 60 65 69 76 84 103 109 117
61 31 52 64 108 71 37 15 86 12 337 329 201 140 70 68 74 2 133 140 88 24 65 85 84 70 64 55 50 53 53 54 56 57 71 72 75 82 87 90 96 101 105 106
54 42 63 337 113 53 35 15 14 2 342 291 220 110 111 82 97 56 11 35 50 62 70 94 94 80 71 71 69 72 74 72 71 72 76 83 85 90 95 102 103 104 105 102
56 57 24 44 60 47 31 9 353 351 335 18 56 71 51 110 69 66 10 37 85 92 83 75 77 86 91 94 89 86 87 90 93 94 91 90 92 92 94 91 90 95 98 99